HULIANWANG DIGUI 14E

Last updated on Wed Dec 10 2025 00:02:08 GMT+0000 (Coordinated Universal Time)

1 66919U 25285E 25343.64376707 -.00000165 00000+0 -79033-5 0 9990 2 66919 50.0055 129.9043 0007847 280.9673 79.0350 14.05714226 474
UTC large
Height (km)
Speed (km/s)
/
Latitude / Longitude
Inclination (degrees)
Orbital Period (minutes)
Azimuth
Elevation
Range (km)
Doppler Factor

Next 0 passes for location: London (51.5072 / 0.1276)

Sorry there are no passes over London.